Погода в Каракасе

Венесуэла     10°29′09″N   66°54′25″W
темп.,
°C
ветер,
м/с
пор.,
м/с
влажн.,
%
обл.,
%
осадки,
мм/ч
давл.,
гПа
погр.,
м
8 декабря, ср
ср823:00+16юв229098 0.0 101659
02:00+16юв228886 0.0 101558
05:00+15юв229213 0.0 101454
08:00+19юв1285100 0.0 1016144
11:00+24ссв125997 0.0 10161132
14:00+24ссз126971 0.3 1013757
17:00+20сз139369 1.9 1013127
20:00+18в129614 2.6 101595
9 декабря, чт
чт923:00+16юв12946 0.0 101656
02:00+16юв129510 0.0 101555
05:00+16ююв12935 0.0 101438
08:00+19вюв128771 0.0 1016139
11:00+24с236763 0.0 10161086
14:00+23сз127770 0.3 1013501
17:00+21с238785 1.3 1013311
20:00+18св129496 1.3 1015133
10 декабря, пт
пт1023:00+17в129488 0.0 1016121
02:00+17вюв1295100 0.0 101597
05:00+17вюв119569 0.0 101482
08:00+18в129051 0.0 1015243
11:00+23с2364100 0.0 10151154
14:00+23ссз226971 0.1 10121040
17:00+20с238247 0.1 1011517
20:00+17ссз029518 0.1 1014100
11 декабря, сб
сб1123:00+15ю11942 0.0 101442
02:00+14ююв22875 0.0 101340
05:00+14ююв21815 0.0 101337
08:00+17вюв127797 0.0 1014128
11:00+23ссз236532 0.0 10131041
14:00+23ссз326741 0.1 10101003
17:00+20ссз2385100 0.1 1010483
20:00+17зсз129553 0.1 101376
12 декабря, вс
вс1223:00+16ююв119419 0.0 101349
02:00+16ююв11934 0.0 101238
05:00+15ююв11925 0.0 101337
08:00+18вюв11851 0.0 1014136
11:00+23ссз226627 0.0 1014986
14:00+23ссз326734 0.2 10111013
17:00+20ссз23797 0.0 1011442
20:00+17зсз129525 0.0 101474